Lawrence, MA

8:17 AM EST on December 16, 2017 (GMT -0500)
Lawrence Municipal

Weather History for KLWM - September, 2013

Change the Weather History Date:

Thursday, September 26, 2013

  Actual Average Record
Temperature  
Mean Temperature 59 °F -  
Max Temperature 68 °F 67 °F 91 °F (2007)
Min Temperature 52 °F 46 °F 34 °F (1936)
Degree Days  
Heating Degree Days 6    
Growing Degree Days 9 (Base 50)    
Moisture  
Dew Point 46 °F    
Average Humidity 64    
Maximum Humidity 80    
Minimum Humidity 45    
Precipitation  
Precipitation 0.00 in - - ()
Sea Level Pressure  
Sea Level Pressure 30.07 in    
Wind  
Wind Speed 4 mph (NNE)    
Max Wind Speed 8 mph    
Max Gust Speed -    
Visibility 10 miles    
Events      
Averages and records for this station are not official NWS values.
T = Trace of Precipitation, MM = Missing Value Source: NWS Daily Summary

Daily Weather History Graph

Daily Weather History Graph

Search for Another Location

Airport or City:

Trip Planner

Search our weather history database for the weather conditions in past years. The results will help you decide how hot, cold, wet, or windy it might be!

Date:

Astronomy

Sep. 26, 2013 Rise Set
Actual Time 6:36 AM EDT 6:34 PM EDT
Civil Twilight 6:08 AM EDT 7:02 PM EDT
Nautical Twilight 5:35 AM EDT 7:35 PM EDT
Astronomical Twilight 5:01 AM EDT 8:08 PM EDT
Moon 11:23 PM EDT (9/26) 1:33 PM EDT (9/26)
Length of Visible Light 12h 54m
Length of Day
11h 57m
Waning Gibbous, 55% of the Moon is Illuminated
Sep 26
Waning Gibbous
Sep 26
Last Quarter
Oct 4
New
Oct 11
First Quarter
Oct 18
Full

Hourly Weather History & Observations

Time (EDT) Temp. Dew Point Humidity Pressure Visibility Wind Dir Wind Speed Gust Speed Precip Events Conditions
12:54 AM 55.9 °F 46.0 °F 69% 30.02 in 10.0 mi NNE 6.9 mph - N/A   Overcast
1:54 AM 55.0 °F 45.0 °F 69% 30.02 in 10.0 mi North 4.6 mph - N/A   Overcast
2:54 AM 55.0 °F 45.0 °F 69% 30.02 in 10.0 mi Calm Calm - N/A   Overcast
3:54 AM 54.0 °F 46.0 °F 75% 30.03 in 10.0 mi Calm Calm - N/A   Overcast
4:54 AM 54.0 °F 45.0 °F 72% 30.03 in 10.0 mi NNW 3.5 mph - N/A   Overcast
5:54 AM 54.0 °F 45.0 °F 72% 30.04 in 10.0 mi Calm Calm - N/A   Overcast
6:54 AM 52.0 °F 44.1 °F 74% 30.04 in 10.0 mi NNW 3.5 mph - N/A   Mostly Cloudy
7:54 AM 54.0 °F 45.0 °F 72% 30.06 in 10.0 mi North 3.5 mph - N/A   Partly Cloudy
8:54 AM 57.0 °F 44.1 °F 62% 30.06 in 10.0 mi NE 5.8 mph - N/A   Clear
9:54 AM 60.1 °F 44.1 °F 55% 30.07 in 10.0 mi NNE 5.8 mph - N/A   Clear
10:54 AM 62.1 °F 45.0 °F 53% 30.07 in 10.0 mi North 8.1 mph - N/A   Scattered Clouds
11:54 AM 63.0 °F 45.0 °F 52% 30.07 in 10.0 mi NNE 8.1 mph - N/A   Clear
12:54 PM 64.9 °F 45.0 °F 48% 30.07 in 10.0 mi NE 8.1 mph - N/A   Partly Cloudy
1:54 PM 66.0 °F 45.0 °F 47% 30.05 in 10.0 mi Calm Calm - N/A   Mostly Cloudy
2:54 PM 66.0 °F 46.0 °F 48% 30.05 in 10.0 mi North 5.8 mph - N/A   Partly Cloudy
3:54 PM 66.9 °F 45.0 °F 45% 30.04 in 10.0 mi NNW 4.6 mph - N/A   Clear
4:54 PM 66.9 °F 45.0 °F 45% 30.05 in 10.0 mi North 3.5 mph - N/A   Clear
5:54 PM 64.9 °F 48.9 °F 56% 30.06 in 10.0 mi East 5.8 mph - N/A   Clear
6:54 PM 60.1 °F 50.0 °F 69% 30.09 in 10.0 mi Variable 3.5 mph - N/A   Clear
7:54 PM 59.0 °F 48.9 °F 69% 30.11 in 10.0 mi Calm Calm - N/A   Overcast
8:54 PM 57.0 °F 48.9 °F 74% 30.12 in 10.0 mi Calm Calm - N/A   Mostly Cloudy
9:54 PM 55.0 °F 48.0 °F 77% 30.14 in 10.0 mi Calm Calm - N/A   Partly Cloudy
10:54 PM 55.9 °F 50.0 °F 80% 30.15 in 10.0 mi Calm Calm - N/A   Overcast
11:54 PM 57.0 °F 48.9 °F 74% 30.15 in 10.0 mi NE 5.8 mph - N/A   Overcast